#timestamp,LO_Frequency,Hit,StdDev 
1636491615.2,286046999.3,N
1636491635.0,286047002.1,N
1636491635.9,286047002.1,N
1636491655.8,286047002.5,N
1636491675.6,286047005.6,N
1636491695.4,286047005.1,N
1636491715.3,286047001.9,N
1636491735.1,286047004.6,N
1636491755.9,286047010.4,Y
1636491775.7,286047003.5,P
1636491795.5,286047002.0,P
1636491815.4,286046999.0,N
1636491835.2,286046998.3,N
1636491855.0,286046996.1,N
1636491855.9,286046996.1,N
1636491875.8,286046997.6,N
1636491895.6,286047002.7,N
1636491915.5,286047001.6,N
1636491935.3,286047004.6,N
1636491955.1,286047009.2,Y
1636491975.9,286047008.8,P
1636491995.7,286047007.9,N
1636492015.6,286047007.9,N
1636492035.4,286047006.2,N
1636492055.2,286047004.6,N
1636492075.1,286047007.3,N
1636492076.0,286047007.3,N
1636492095.8,286047004.8,N
1636492115.7,286047009.2,Y
1636492135.5,286047004.5,P
1636492155.3,286047003.4,P
1636492175.2,286047005.7,P
1636492195.9,286046998.2,N
1636492215.7,286046998.1,N
1636492235.6,286046999.8,N
1636492255.4,286047004.4,N
1636492275.3,286047000.3,N
1636492295.1,286046999.4,N
1636492296.0,286046999.4,N
1636492315.8,286046996.5,N
1636492335.7,286047000.7,N
1636492355.5,286046998.4,N
1636492375.3,286046996.3,N
1636492395.2,286046994.2,N
1636492415.0,286046991.9,N
1636492415.9,286046991.9,N
1636492435.8,286046998.0,N
1636492455.6,286046992.2,N
1636492475.4,286046992.8,N
1636492495.3,286046987.0,N
1636492515.1,286046996.3,N
1636492535.8,286046997.2,N
1636492555.7,286047002.7,N
1636492575.5,286047005.5,N
1636492595.4,286047003.5,N
1636492615.2,286047008.8,N
1636492635.0,286047015.2,N
1636492635.9,286047015.2,N
1636492655.8,286047012.2,N
1636492675.6,286047000.1,N
1636492695.4,286046999.4,N
1636492715.3,286046998.4,N
1636492735.1,286047000.8,N
1636492755.9,286046999.4,N
1636492775.7,286046996.5,N
1636492795.5,286046993.7,N
1636492815.4,286046996.0,N
1636492835.2,286046994.7,N
1636492855.1,286046998.0,N
1636492856.0,286046998.0,N
1636492875.8,286046993.8,N
1636492895.6,286046994.2,N
1636492915.5,286046991.3,N
1636492935.3,286046996.2,N
1636492955.1,286047000.5,N
1636492975.9,286046995.0,N
1636492995.7,286046993.6,N
1636493015.6,286046999.7,N
1636493035.4,286047001.5,N
1636493055.2,286047011.9,N
1636493075.1,286047001.9,N
1636493076.0,286047001.9,N
1636493095.8,286047003.8,N
1636493115.6,286047006.7,N
1636493135.5,286047007.8,N
1636493155.3,286047006.0,N
1636493175.2,286047002.0,N
1636493195.9,286047002.7,N
1636493215.7,286046998.4,N
1636493235.6,286047004.2,N
1636493255.4,286047002.7,N
1636493275.2,286047008.5,N
1636493295.1,286047011.2,N
1636493296.0,286047011.2,N
1636493315.8,286047014.2,N
1636493335.7,286047018.7,Y
1636493355.5,286047020.2,P
1636493375.3,286047012.8,N
1636493395.2,286047013.4,N
1636493415.0,286047015.0,N
1636493415.9,286047015.0,N
1636493435.8,286047018.7,Y
1636493455.6,286047004.7,P
1636493475.4,286047005.2,N
1636493495.3,286047005.3,N
1636493515.1,286046999.7,N
1636493535.8,286047003.1,N
1636493555.7,286047007.4,N
1636493575.5,286047004.7,N
1636493595.4,286047006.4,N
1636493615.2,286047006.9,N
1636493635.0,286047005.0,N
1636493635.9,286047005.0,N
1636493655.8,286047007.2,N
1636493675.6,286047006.0,N
1636493695.5,286046997.5,N
1636493715.3,286046996.9,N
1636493735.1,286046996.7,N
1636493755.9,286046992.2,N
1636493775.7,286046999.2,N
1636493795.5,286046996.9,N
1636493815.4,286046999.5,N
1636493835.2,286046998.4,N
1636493855.1,286047000.3,N
1636493856.0,286047000.3,N
1636493875.8,286047004.3,N
1636493895.6,286047005.4,N
1636493915.5,286047001.7,N
1636493935.3,286047000.5,N
1636493955.2,286047000.4,N
1636493975.9,286047000.8,N
1636493995.7,286046995.3,N
1636494015.6,286046993.3,N
1636494035.4,286046996.7,N
1636494055.2,286046996.9,N
1636494075.1,286046995.0,N
1636494076.0,286046995.0,N
1636494095.8,286046997.6,N
1636494115.7,286046991.9,N
1636494135.5,286046995.9,N
1636494155.3,286046996.0,N
1636494175.2,286046992.1,N
1636494195.0,286046997.6,N
1636494195.9,286046997.6,N
1636494215.7,286046997.2,N
1636494235.6,286046994.9,N
1636494255.4,286046996.9,N
1636494275.3,286046992.4,N
1636494295.1,286046990.3,N
1636494296.0,286046990.3,N
1636494315.8,286046987.1,Y
1636494335.7,286046988.1,P
1636494355.5,286046983.7,P
1636494375.4,286046986.1,N
1636494395.2,286046987.2,N
1636494415.0,286046983.8,Y
1636494415.9,286046983.8,P
1636494435.8,286046995.3,N
1636494455.6,286046993.5,N
1636494475.4,286046994.8,N
1636494495.3,286046998.9,N
1636494515.1,286047004.2,N
1636494535.9,286047005.9,N
1636494555.7,286047008.8,N
1636494575.5,286047005.6,N
1636494595.4,286047002.5,N
1636494615.2,286046998.5,N
1636494635.0,286047004.1,N
1636494635.9,286047004.1,N
1636494655.8,286047007.3,N
1636494675.6,286047010.8,N
1636494695.5,286047012.9,N
1636494715.3,286047020.3,N
1636494735.1,286047014.1,N
1636494755.9,286047012.9,N
1636494775.7,286047012.9,N
1636494795.5,286047014.2,N
1636494815.4,286047021.8,N
1636494835.2,286047011.9,N
1636494855.1,286047008.3,N
1636494856.0,286047008.3,N
1636494875.8,286047006.5,N
1636494895.6,286047006.7,N
1636494915.5,286047008.5,N
1636494935.3,286047009.8,N
1636494955.1,286047012.6,N
1636494975.9,286047017.5,N
1636494995.7,286047022.8,Y
1636495015.6,286047015.7,P
1636495035.4,286047014.4,P
1636495055.2,286047013.7,P
1636495075.1,286047013.0,Y
1636495076.0,286047013.0,P
1636495095.8,286046997.7,P
1636495115.7,286046998.3,N
1636495135.5,286047000.3,N
1636495155.3,286046996.1,N
1636495175.2,286046997.3,N
1636495195.9,286046995.4,N
